When you browse on this site, cookies collect data to enhance your experience and personalize the content and advertising you see.
Visit our Privacy Policy to learn more. By continuing to use the site, you agree to this use of cookies and data.
  • In Hungary
  • List of Countries
  • For 7 days
  • Water Temperature
  • Satellite Maps
  • Weather Map
  • News
  • Weather Widgets
  • user-avatar
    Login

    Hourly Weather Potutoriv

    Today, 18 July, Thursday

    Time Temperature Precipitation Wind Pressure Humidity
    00:00 +11°C° 0 mm 3 mps 735 mmHg 95%
    01:00 +11°C° 0 mm 3 mps 735 mmHg 95%
    02:00 +10°C° 0 mm 2 mps 735 mmHg 96%
    03:00 +10°C° 0 mm 3 mps 735 mmHg 96%
    04:00 +10°C° 0 mm 3 mps 735 mmHg 96%
    05:00 +10°C° 0 mm 3 mps 735 mmHg 96%
    06:00 +11°C° 0 mm 3 mps 735 mmHg 90%
    07:00 +13°C° 0 mm 4 mps 736 mmHg 85%
    08:00 +15°C° 0 mm 5 mps 736 mmHg 79%
    09:00 +16°C° 0.1 mm 5 mps 736 mmHg 76%
    10:00 +17°C° 0.1 mm 5 mps 736 mmHg 72%
    11:00 +19°C° 0.1 mm 5 mps 737 mmHg 69%
    12:00 +19°C° 0.3 mm 5 mps 737 mmHg 70%
    13:00 +19°C° 0.3 mm 5 mps 736 mmHg 71%
    14:00 +20°C° 0.3 mm 5 mps 736 mmHg 73%
    15:00 +20°C° 0.1 mm 5 mps 737 mmHg 72%
    16:00 +20°C° 0.1 mm 4 mps 737 mmHg 71%
    17:00 +20°C° 0.1 mm 4 mps 737 mmHg 70%
    18:00 +19°C° 0 mm 4 mps 737 mmHg 76%
    19:00 +18°C° 0 mm 3 mps 737 mmHg 82%
    20:00 +16°C° 0 mm 2 mps 737 mmHg 88%
    21:00 +16°C° 0 mm 2 mps 737 mmHg 89%
    22:00 +15°C° 0 mm 2 mps 737 mmHg 90%
    23:00 +14°C° 0 mm 2 mps 738 mmHg 91%

    Tomorrow, 19 July, Friday

    Time Temperature Precipitation Wind Pressure Humidity
    00:00 +14°C° 0 mm 2 mps 738 mmHg 92%
    01:00 +14°C° 0 mm 2 mps 738 mmHg 92%
    02:00 +14°C° 0 mm 2 mps 738 mmHg 93%
    03:00 +13°C° 0 mm 2 mps 738 mmHg 93%
    04:00 +13°C° 0 mm 2 mps 738 mmHg 93%
    05:00 +13°C° 0 mm 2 mps 738 mmHg 93%
    06:00 +15°C° 0 mm 2 mps 739 mmHg 87%
    07:00 +17°C° 0 mm 2 mps 739 mmHg 81%
    08:00 +18°C° 0 mm 2 mps 739 mmHg 76%
    09:00 +20°C° 0 mm 2 mps 739 mmHg 70%
    10:00 +21°C° 0 mm 2 mps 739 mmHg 65%
    11:00 +23°C° 0 mm 2 mps 739 mmHg 59%
    12:00 +24°C° 0.1 mm 2 mps 739 mmHg 59%
    13:00 +24°C° 0.1 mm 2 mps 739 mmHg 58%
    14:00 +25°C° 0.1 mm 2 mps 739 mmHg 58%
    15:00 +24°C° 0.1 mm 2 mps 739 mmHg 59%
    16:00 +24°C° 0.1 mm 2 mps 739 mmHg 60%
    17:00 +24°C° 0.1 mm 2 mps 739 mmHg 61%
    18:00 +23°C° 0.1 mm 2 mps 739 mmHg 67%
    19:00 +20°C° 0.1 mm 2 mps 739 mmHg 73%
    20:00 +19°C° 0.1 mm 1 mps 739 mmHg 78%
    21:00 +19°C° 0 mm 1 mps 739 mmHg 79%
    22:00 +18°C° 0 mm 1 mps 740 mmHg 81%
    23:00 +15°C° 0 mm 0 mps 740 mmHg 82%

    Day after tomorrow, 20 July, Saturday

    Time Temperature Precipitation Wind Pressure Humidity
    00:00 +15°C° 0 mm 0 mps 740 mmHg 82%
    01:00 +15°C° 0 mm 0 mps 740 mmHg 83%
    02:00 +14°C° 0 mm 0 mps 740 mmHg 83%
    03:00 +14°C° 0 mm 0 mps 740 mmHg 83%
    04:00 +14°C° 0 mm 0 mps 740 mmHg 83%
    05:00 +14°C° 0 mm 0 mps 741 mmHg 83%
    06:00 +16°C° 0 mm 0 mps 741 mmHg 78%
    07:00 +18°C° 0 mm 0 mps 741 mmHg 73%
    08:00 +19°C° 0 mm 0 mps 741 mmHg 68%
    09:00 +21°C° 0 mm 0 mps 742 mmHg 64%
    10:00 +22°C° 0 mm 0 mps 742 mmHg 60%
    11:00 +25°C° 0 mm 1 mps 742 mmHg 55%
    12:00 +26°C° 0.2 mm 1 mps 742 mmHg 56%
    13:00 +26°C° 0.2 mm 1 mps 742 mmHg 56%
    14:00 +26°C° 0.2 mm 1 mps 742 mmHg 56%
    15:00 +26°C° 0.6 mm 1 mps 742 mmHg 58%
    16:00 +26°C° 0.6 mm 1 mps 742 mmHg 59%
    17:00 +24°C° 0.6 mm 0 mps 742 mmHg 61%
    18:00 +22°C° 0.1 mm 0 mps 742 mmHg 67%
    19:00 +23°C° 0.1 mm 1 mps 742 mmHg 73%
    20:00 +21°C° 0.1 mm 1 mps 742 mmHg 79%
    21:00 +20°C° 0 mm 1 mps 742 mmHg 81%
    22:00 +20°C° 0 mm 1 mps 742 mmHg 83%
    23:00 +19°C° 0 mm 1 mps 742 mmHg 86%

    21 July, Sunday

    Time Temperature Precipitation Wind Pressure Humidity
    00:00 +18°C° 0 mm 1 mps 742 mmHg 87%
    01:00 +18°C° 0 mm 1 mps 742 mmHg 88%
    02:00 +18°C° 0 mm 1 mps 742 mmHg 89%
    03:00 +18°C° 0 mm 1 mps 742 mmHg 89%
    04:00 +16°C° 0 mm 1 mps 742 mmHg 89%
    05:00 +16°C° 0 mm 1 mps 742 mmHg 90%
    06:00 +18°C° 0 mm 2 mps 742 mmHg 86%
    07:00 +20°C° 0 mm 2 mps 742 mmHg 82%
    08:00 +21°C° 0 mm 2 mps 742 mmHg 78%
    09:00 +24°C° 0 mm 2 mps 742 mmHg 73%
    10:00 +25°C° 0 mm 2 mps 742 mmHg 68%
    11:00 +27°C° 0 mm 2 mps 742 mmHg 63%
    12:00 +28°C° 0.1 mm 3 mps 742 mmHg 61%
    13:00 +28°C° 0.1 mm 3 mps 742 mmHg 59%
    14:00 +29°C° 0.1 mm 3 mps 741 mmHg 56%
    15:00 +29°C° 0.7 mm 3 mps 741 mmHg 59%
    16:00 +28°C° 0.7 mm 3 mps 741 mmHg 61%
    17:00 +28°C° 0.7 mm 3 mps 740 mmHg 63%
    18:00 +27°C° 0.3 mm 3 mps 740 mmHg 70%
    19:00 +25°C° 0.3 mm 3 mps 740 mmHg 77%
    20:00 +22°C° 0.3 mm 3 mps 740 mmHg 83%
    21:00 +21°C° 0.4 mm 2 mps 740 mmHg 86%
    22:00 +20°C° 0.4 mm 2 mps 740 mmHg 88%
    23:00 +20°C° 0.4 mm 1 mps 740 mmHg 91%

    22 July, Monday

    Time Temperature Precipitation Wind Pressure Humidity
    00:00 +19°C° 0 mm 2 mps 740 mmHg 92%
    01:00 +18°C° 0 mm 2 mps 740 mmHg 93%
    02:00 +18°C° 0 mm 3 mps 740 mmHg 94%
    03:00 +18°C° 0 mm 3 mps 740 mmHg 95%
    04:00 +17°C° 0 mm 4 mps 740 mmHg 95%
    05:00 +17°C° 0 mm 4 mps 740 mmHg 95%
    06:00 +18°C° 0 mm 4 mps 740 mmHg 92%
    07:00 +19°C° 0 mm 5 mps 741 mmHg 88%
    08:00 +21°C° 0 mm 5 mps 741 mmHg 85%
    09:00 +21°C° 0.3 mm 6 mps 741 mmHg 83%
    10:00 +22°C° 0.3 mm 6 mps 741 mmHg 81%
    11:00 +23°C° 0.3 mm 6 mps 741 mmHg 79%
    12:00 +23°C° 0.2 mm 6 mps 741 mmHg 75%
    13:00 +24°C° 0.2 mm 6 mps 741 mmHg 70%
    14:00 +26°C° 0.2 mm 6 mps 741 mmHg 66%
    15:00 +24°C° 0.1 mm 6 mps 741 mmHg 67%
    16:00 +25°C° 0.1 mm 5 mps 741 mmHg 68%
    17:00 +25°C° 0.1 mm 5 mps 741 mmHg 69%
    18:00 +22°C° 0.1 mm 4 mps 741 mmHg 75%
    19:00 +21°C° 0.1 mm 3 mps 741 mmHg 81%
    20:00 +20°C° 0.1 mm 2 mps 741 mmHg 86%
    21:00 +19°C° 0 mm 2 mps 741 mmHg 88%
    22:00 +18°C° 0 mm 3 mps 741 mmHg 90%
    23:00 +18°C° 0 mm 3 mps 741 mmHg 91%

    23 July, Tuesday

    Time Temperature Precipitation Wind Pressure Humidity
    00:00 +17°C° 0 mm 3 mps 741 mmHg 92%
    01:00 +17°C° 0 mm 3 mps 741 mmHg 94%
    02:00 +16°C° 0 mm 3 mps 741 mmHg 95%
    03:00 +16°C° 0 mm 3 mps 740 mmHg 95%
    04:00 +16°C° 0 mm 3 mps 740 mmHg 96%
    05:00 +15°C° 0 mm 2 mps 740 mmHg 97%
    06:00 +17°C° 0 mm 3 mps 741 mmHg 93%
    07:00 +18°C° 0 mm 3 mps 741 mmHg 89%
    08:00 +19°C° 0 mm 3 mps 741 mmHg 85%
    09:00 +20°C° 0 mm 4 mps 741 mmHg 78%
    10:00 +21°C° 0 mm 4 mps 741 mmHg 72%
    11:00 +22°C° 0 mm 4 mps 741 mmHg 65%
    12:00 +23°C° 0.1 mm 4 mps 741 mmHg 64%
    13:00 +23°C° 0.1 mm 4 mps 741 mmHg 63%
    14:00 +23°C° 0.1 mm 4 mps 740 mmHg 61%
    15:00 +23°C° 0 mm 4 mps 740 mmHg 62%
    16:00 +23°C° 0 mm 4 mps 740 mmHg 63%
    17:00 +23°C° 0 mm 4 mps 740 mmHg 64%
    18:00 +22°C° 0.1 mm 3 mps 740 mmHg 72%
    19:00 +20°C° 0.1 mm 3 mps 740 mmHg 81%
    20:00 +18°C° 0.1 mm 3 mps 740 mmHg 89%
    21:00 +18°C° 0 mm 3 mps 740 mmHg 91%
    22:00 +17°C° 0 mm 2 mps 740 mmHg 92%
    23:00 +16°C° 0 mm 2 mps 740 mmHg 94%
    Show more